Weather History for Tehachapi, CA

Change the Weather History Date:

Sunday, April 6, 2014

  Actual Average Record
Temperature  
Mean Temperature 48 °F -  
Max Temperature 62 °F 60 °F 62 °F (2014)
Min Temperature 33 °F 37 °F 28 °F (2012)
Degree Days  
Heating Degree Days 18    
Moisture  
Dew Point 37 °F    
Average Humidity 68    
Maximum Humidity 93    
Minimum Humidity 31    
Precipitation  
Precipitation 0.00 in - - ()
Sea Level Pressure  
Sea Level Pressure 30.20 in    
Wind  
Wind Speed 7 mph (WNW)    
Max Wind Speed 17 mph    
Max Gust Speed 22 mph    
Visibility 9 miles    
Events      
Averages and records for this station are not official NWS values.
T = Trace of Precipitation, MM = Missing Value Source: NWS Daily Summary

Daily Weather History Graph

Daily Weather History Graph

Search for Another Location

Airport:

Trip Planner

Search our weather history database for the weather conditions in past years. The results will help you decide how hot, cold, wet, or windy it might be!

Date:

Astronomy

Apr. 06, 2014 Rise Set
Actual Time 6:33 AM PDT 7:19 PM PDT
Civil Twilight 6:07 AM PDT 7:44 PM PDT
Nautical Twilight 5:37 AM PDT 8:15 PM PDT
Astronomical Twilight 5:06 AM PDT 8:46 PM PDT
Moon 11:45 AM PDT (4/6) 1:11 AM PDT (4/6)
Length of Visible Light 13h 37m
Length of Day
12h 45m
Waxing Crescent, 45% of the Moon is Illuminated
Apr 6
Waxing Crescent
Apr 7
First Quarter
Apr 15
Full
Apr 22
Last Quarter
Apr 28
New

Hourly Weather History & Observations

Time (PDT) Temp. Windchill Dew Point Humidity Pressure Visibility Wind Dir Wind Speed Gust Speed Precip Events Conditions
12:15 AM 42.8 °F 37.0 °F 37.4 °F 81% 30.18 in 9.0 mi WNW 10.4 mph - N/A   Overcast
12:35 AM 42.8 °F 37.5 °F 37.4 °F 81% 30.19 in 9.0 mi WNW 9.2 mph - N/A   Overcast
12:55 AM 44.6 °F 39.7 °F 37.4 °F 76% 30.19 in 9.0 mi West 9.2 mph - N/A   Overcast
1:15 AM 42.8 °F 38.0 °F 37.4 °F 81% 30.19 in 8.0 mi WNW 8.1 mph - N/A   Overcast
1:35 AM 42.8 °F 37.0 °F 37.4 °F 81% 30.19 in 8.0 mi WNW 10.4 mph - N/A   Overcast
1:55 AM 42.8 °F 38.6 °F 37.4 °F 81% 30.19 in 8.0 mi WNW 6.9 mph - N/A   Overcast
2:15 AM 42.8 °F 38.6 °F 37.4 °F 81% 30.19 in 8.0 mi WNW 6.9 mph - N/A   Overcast
2:35 AM 42.8 °F 40.1 °F 37.4 °F 81% 30.19 in 8.0 mi NW 4.6 mph - N/A   Overcast
2:55 AM 42.8 °F 39.3 °F 37.4 °F 81% 30.19 in 9.0 mi WNW 5.8 mph - N/A   Overcast
3:15 AM 41.0 °F 37.1 °F 37.4 °F 87% 30.19 in 9.0 mi WSW 5.8 mph - N/A   Overcast
3:35 AM 39.2 °F 33.6 °F 35.6 °F 87% 30.19 in 9.0 mi West 8.1 mph - N/A   Overcast
3:55 AM 39.2 °F 35.0 °F 35.6 °F 87% 30.19 in 8.0 mi West 5.8 mph - N/A   Overcast
4:15 AM 39.2 °F 35.9 °F 35.6 °F 87% 30.19 in 8.0 mi West 4.6 mph - N/A   Overcast
4:35 AM 39.2 °F - 35.6 °F 87% 30.19 in 10.0 mi Calm Calm - N/A   Overcast
4:55 AM 39.2 °F 37.0 °F 35.6 °F 87% 30.19 in 10.0 mi WNW 3.5 mph - N/A   Overcast
5:15 AM 39.2 °F - 35.6 °F 87% 30.19 in 10.0 mi Calm Calm - N/A   Overcast
5:35 AM 37.4 °F - 35.6 °F 93% 30.18 in 9.0 mi Calm Calm - N/A   Mostly Cloudy
5:55 AM 35.6 °F - 33.8 °F 93% 30.19 in 8.0 mi Calm Calm - N/A   Partly Cloudy
6:15 AM 35.6 °F - 33.8 °F 93% 30.20 in 8.0 mi Calm Calm - N/A   Clear
6:35 AM 33.8 °F 30.8 °F 32.0 °F 93% 30.20 in 5.0 mi East 3.5 mph - N/A   Clear
6:55 AM 33.8 °F 29.6 °F 32.0 °F 93% 30.20 in 4.0 mi ESE 4.6 mph - N/A   Clear
7:15 AM 35.6 °F 32.8 °F 33.8 °F 93% 30.21 in 4.0 mi ESE 3.5 mph - N/A   Clear
7:35 AM 37.4 °F 32.8 °F 35.6 °F 93% 30.22 in 5.0 mi SE 5.8 mph - N/A   Clear
7:55 AM 39.2 °F 37.0 °F 37.4 °F 93% 30.23 in 7.0 mi SE 3.5 mph - N/A   Clear
8:15 AM 41.0 °F 38.0 °F 37.4 °F 87% 30.23 in 7.0 mi SE 4.6 mph - N/A   Clear
8:55 AM 44.6 °F 42.2 °F 37.4 °F 76% 30.23 in 9.0 mi ESE 4.6 mph - N/A   Clear
9:15 AM 46.4 °F 45.2 °F 37.4 °F 71% 30.23 in 9.0 mi SE 3.5 mph - N/A   Clear
9:35 AM 48.2 °F - 37.4 °F 66% 30.23 in 8.0 mi Calm Calm - N/A   Clear
9:55 AM 50.0 °F - 37.4 °F 62% 30.23 in 9.0 mi Calm Calm - N/A   Clear
10:15 AM 51.8 °F - 35.6 °F 54% 30.23 in 10.0 mi SE 3.5 mph - N/A   Clear
10:35 AM 55.4 °F - 37.4 °F 51% 30.23 in 9.0 mi SSW 4.6 mph - N/A   Clear
10:55 AM 57.2 °F - 32.0 °F 38% 30.23 in 7.0 mi Calm Calm - N/A   Clear
11:15 AM 59.0 °F - 28.4 °F 31% 30.23 in 8.0 mi Calm Calm - N/A   Clear
11:35 AM 62.6 °F - 35.6 °F 37% 30.22 in 8.0 mi NW 11.5 mph - N/A   Clear
11:55 AM 59.0 °F - 39.2 °F 48% 30.22 in 9.0 mi NW 12.7 mph 17.3 mph N/A   Clear
12:15 PM 59.0 °F - 39.2 °F 48% 30.22 in 8.0 mi NW 12.7 mph - N/A   Clear
12:35 PM 59.0 °F - 39.2 °F 48% 30.21 in 8.0 mi NW 15.0 mph - N/A   Clear
12:55 PM 59.0 °F - 39.2 °F 48% 30.21 in 9.0 mi NW 15.0 mph - N/A   Clear
1:15 PM 59.0 °F - 41.0 °F 51% 30.21 in 8.0 mi NW 15.0 mph - N/A   Clear
1:35 PM 59.0 °F - 41.0 °F 51% 30.21 in 8.0 mi NW 13.8 mph - N/A   Clear
1:55 PM 60.8 °F - 41.0 °F 48% 30.21 in 8.0 mi NW 11.5 mph - N/A   Clear
2:15 PM 60.8 °F - 41.0 °F 48% 30.20 in 9.0 mi NW 13.8 mph 19.6 mph N/A   Clear
2:35 PM 60.8 °F - 41.0 °F 48% 30.20 in 9.0 mi NW 15.0 mph - N/A   Clear
2:55 PM 60.8 °F - 41.0 °F 48% 30.19 in 8.0 mi NW 15.0 mph - N/A   Clear
3:15 PM 60.8 °F - 41.0 °F 48% 30.18 in 10.0 mi NW 15.0 mph - N/A   Clear
3:35 PM 60.8 °F - 41.0 °F 48% 30.18 in 8.0 mi NW 16.1 mph - N/A   Clear
3:55 PM 60.8 °F - 41.0 °F 48% 30.18 in 9.0 mi NW 15.0 mph 20.7 mph N/A   Clear
4:15 PM 59.0 °F - 41.0 °F 51% 30.18 in 9.0 mi NNW 17.3 mph - N/A   Clear
4:35 PM 59.0 °F - 41.0 °F 51% 30.18 in 10.0 mi NW 16.1 mph - N/A   Clear
4:55 PM 59.0 °F - 39.2 °F 48% 30.18 in 10.0 mi NW 15.0 mph 21.9 mph N/A   Clear
5:15 PM 59.0 °F - 39.2 °F 48% 30.18 in 9.0 mi NW 13.8 mph - N/A   Clear
5:35 PM 59.0 °F - 37.4 °F 45% 30.18 in 9.0 mi NW 11.5 mph 17.3 mph N/A   Clear
5:55 PM 57.2 °F - 35.6 °F 44% 30.18 in 10.0 mi NW 11.5 mph - N/A   Clear
6:15 PM 57.2 °F - 37.4 °F 48% 30.18 in 9.0 mi NW 12.7 mph - N/A   Clear
6:35 PM 55.4 °F - 37.4 °F 51% 30.18 in 9.0 mi WNW 12.7 mph - N/A   Clear
6:55 PM 55.4 °F - 37.4 °F 51% 30.18 in 10.0 mi NW 11.5 mph - N/A   Clear
7:15 PM 53.6 °F - 37.4 °F 54% 30.18 in 9.0 mi WNW 12.7 mph - N/A   Clear
7:35 PM 53.6 °F - 37.4 °F 54% 30.19 in 9.0 mi WNW 6.9 mph - N/A   Clear
7:55 PM 50.0 °F - 37.4 °F 62% 30.19 in 10.0 mi West 4.6 mph - N/A   Clear
8:15 PM 50.0 °F - 39.2 °F 66% 30.20 in 10.0 mi West 8.1 mph - N/A   Clear
8:35 PM 50.0 °F - 39.2 °F 66% 30.20 in 10.0 mi West 5.8 mph - N/A   Clear
8:55 PM 48.2 °F - 39.2 °F 71% 30.21 in 10.0 mi WNW 4.6 mph - N/A   Clear
9:15 PM 46.4 °F 45.2 °F 39.2 °F 76% 30.21 in 10.0 mi NW 3.5 mph - N/A   Clear
9:35 PM 44.6 °F - 39.2 °F 81% 30.21 in 10.0 mi Calm Calm - N/A   Clear
10:15 PM 44.6 °F - 39.2 °F 81% 30.22 in 10.0 mi Calm Calm - N/A   Clear
10:35 PM 41.0 °F 38.0 °F 37.4 °F 87% 30.22 in 10.0 mi SE 4.6 mph - N/A   Clear
10:55 PM 44.6 °F - 37.4 °F 76% 30.23 in 10.0 mi Calm Calm - N/A   Clear
11:15 PM 41.0 °F 38.0 °F 35.6 °F 81% 30.23 in 10.0 mi ESE 4.6 mph - N/A   Clear
11:35 PM 41.0 °F - 35.6 °F 81% 30.23 in 10.0 mi Calm Calm - N/A   Clear
11:55 PM 41.0 °F - 35.6 °F 81% 30.23 in 10.0 mi Calm Calm - N/A   Clear